Location: Aufkirchen
(47.9603°N, 11.3653°E)
Time: 05:51:03
(UTC+01:00)

Transit 2A - Pass Details

Date: 29 November 2020
Orbit: 599 x 960 km, 66.7° (Epoch: 25 January)

Event Time Altitude Azimuth Distance (km) Brightness Sun altitude
Rises 01:41:46 0° 326° (NW) 3,345 - -57.0°
Reaches altitude 10° 01:44:22 10° 330° (NNW) 2,350 - -56.6°
Maximum altitude 01:49:39 59° 50° (NE) 836 - -56.0°
Drops below altitude 10° 01:54:23 10° 131° (SE) 2,108 - -55.4°
Sets 01:56:37 0° 135° (SE) 2,972 - -55.1°
